| time (UTC) | temp F | wind direction | speed knots | gust knots | rain 1hr in | rain 24hr in | rain mn in | humidity % | barometer mb |
| 20260509000058 | 75 | 289 | 2.6 | 9.6 | 0.00 | 0.00 | 0.00 | 23 | 1007.2 |
| 20260508235555 | 76 | 304 | 4.3 | 10.4 | 0.00 | 0.00 | 0.00 | 24 | 1007.3 |
| 20260508235054 | 76 | 5 | 4.3 | 9.6 | 0.00 | 0.00 | 0.00 | 24 | 1007.2 |
| 20260508234553 | 75 | 345 | 3.5 | 16.5 | 0.00 | 0.00 | 0.00 | 27 | 1007.3 |
| 20260508234052 | 75 | 345 | 8.7 | 18.2 | 0.00 | 0.00 | 0.00 | 25 | 1007.3 |
| 20260508233551 | 75 | 289 | 6.1 | 13.9 | 0.00 | 0.00 | 0.00 | 25 | 1007.3 |
| 20260508233049 | 76 | 305 | 8.7 | 13.9 | 0.00 | 0.00 | 0.00 | 24 | 1007.3 |
| 20260508232551 | 76 | 270 | 8.7 | 13.0 | 0.00 | 0.00 | 0.00 | 25 | 1007.0 |
| 20260508232046 | 76 | 284 | 4.3 | 10.4 | 0.00 | 0.00 | 0.00 | 23 | 1007.2 |
| 20260508231544 | 76 | 296 | 3.5 | 15.6 | 0.00 | 0.00 | 0.00 | 23 | 1007.2 |
| 20260508231043 | 76 | 350 | 5.2 | 15.6 | 0.00 | 0.00 | 0.00 | 25 | 1007.2 |
| 20260508230541 | 76 | 240 | 5.2 | 8.7 | 0.00 | 0.00 | 0.00 | 24 | 1007.2 |
| 20260508230040 | 76 | 328 | 3.5 | 14.8 | 0.00 | 0.00 | 0.00 | 24 | 1007.4 |
| 20260508225539 | 76 | 345 | 7.8 | 14.8 | 0.00 | 0.00 | 0.00 | 25 | 1007.4 |
| 20260508225038 | 76 | 355 | 3.5 | 13.0 | 0.00 | 0.00 | 0.00 | 26 | 1007.4 |
| 20260508224537 | 76 | 355 | 6.1 | 13.0 | 0.00 | 0.00 | 0.00 | 25 | 1007.4 |
| 20260508224035 | 76 | 28 | 7.0 | 14.8 | 0.00 | 0.00 | 0.00 | 25 | 1007.5 |
| 20260508223533 | 75 | 355 | 6.1 | 14.8 | 0.00 | 0.00 | 0.00 | 26 | 1007.6 |
| 20260508223040 | 75 | 324 | 5.2 | 12.2 | 0.00 | 0.00 | 0.00 | 27 | 1007.7 |
| 20260508222529 | 76 | 26 | 6.1 | 13.0 | 0.00 | 0.00 | 0.00 | 26 | 1007.8 |
| 20260508222028 | 75 | 350 | 7.8 | 13.0 | 0.00 | 0.00 | 0.00 | 25 | 1007.8 |
| 20260508221527 | 75 | 3 | 3.5 | 12.2 | 0.00 | 0.00 | 0.00 | 25 | 1007.9 |
| 20260508221029 | 75 | 53 | 3.5 | 10.4 | 0.00 | 0.00 | 0.00 | 26 | 1008.0 |
| 20260508220526 | 75 | 331 | 6.1 | 10.4 | 0.00 | 0.00 | 0.00 | 25 | 1008.0 |
| 20260508220024 | 75 | 345 | 2.6 | 11.3 | 0.00 | 0.00 | 0.00 | 28 | 1008.2 |
| 20260508215521 | 75 | 345 | 7.8 | 11.3 | 0.00 | 0.00 | 0.00 | 27 | 1008.2 |
| 20260508215020 | 75 | 359 | 5.2 | 13.0 | 0.00 | 0.00 | 0.00 | 28 | 1008.2 |
| 20260508214519 | 75 | 39 | 7.8 | 13.9 | 0.00 | 0.00 | 0.00 | 27 | 1008.2 |
| 20260508214017 | 75 | 39 | 8.7 | 13.9 | 0.00 | 0.00 | 0.00 | 28 | 1008.2 |
| 20260508213515 | 75 | 22 | 5.2 | 13.9 | 0.00 | 0.00 | 0.00 | 26 | 1008.2 |
| 20260508213016 | 75 | 45 | 7.0 | 19.1 | 0.00 | 0.00 | 0.00 | 26 | 1008.3 |
| 20260508212513 | 74 | 286 | 2.6 | 9.6 | 0.00 | 0.00 | 0.00 | 27 | 1008.3 |
| 20260508212016 | 75 | 267 | 6.1 | 10.4 | 0.00 | 0.00 | 0.00 | 27 | 1008.5 |
| 20260508211509 | 75 | 302 | 6.1 | 9.6 | 0.00 | 0.00 | 0.00 | 26 | 1008.4 |
| 20260508211008 | 74 | 269 | 1.7 | 11.3 | 0.00 | 0.00 | 0.00 | 26 | 1008.5 |
| 20260508210506 | 74 | 35 | 2.6 | 13.0 | 0.00 | 0.00 | 0.00 | 27 | 1008.6 |
| 20260508210005 | 74 | 355 | 8.7 | 13.0 | 0.00 | 0.00 | 0.00 | 27 | 1008.6 |
| 20260508205505 | 74 | 294 | 7.8 | 13.0 | 0.00 | 0.00 | 0.00 | 26 | 1008.7 |
| 20260508205003 | 74 | 276 | 7.8 | 12.2 | 0.00 | 0.00 | 0.00 | 27 | 1008.8 |
| 20260508204602 | 74 | 327 | 4.3 | 12.2 | 0.00 | 0.00 | 0.00 | 25 | 1008.8 |
| 20260508204503 | 74 | 314 | 3.5 | 13.0 | 0.00 | 0.00 | 0.00 | 25 | 1008.8 |
| 20260508204100 | 74 | 272 | 8.7 | 13.0 | 0.00 | 0.00 | 0.00 | 25 | 1008.8 |
| 20260508203557 | 74 | 328 | 7.8 | 13.0 | 0.00 | 0.00 | 0.00 | 27 | 1008.8 |
| 20260508203101 | 74 | 340 | 8.7 | 14.8 | 0.00 | 0.00 | 0.00 | 26 | 1009.0 |
| 20260508202554 | 74 | 276 | 7.0 | 14.8 | 0.00 | 0.00 | 0.00 | 26 | 1009.0 |
| 20260508202052 | 73 | 244 | 3.5 | 12.2 | 0.00 | 0.00 | 0.00 | 27 | 1009.0 |
| 20260508201553 | 74 | 276 | 7.8 | 11.3 | 0.00 | 0.00 | 0.00 | 28 | 1009.0 |
| 20260508201049 | 74 | 350 | 7.0 | 14.8 | 0.00 | 0.00 | 0.00 | 28 | 1009.1 |
| 20260508200548 | 74 | 14 | 7.0 | 17.4 | 0.00 | 0.00 | 0.00 | 28 | 1009.1 |
| 20260508200047 | 74 | 7 | 7.0 | 16.5 | 0.00 | 0.00 | 0.00 | 29 | 1009.1 |
| 20260508195545 | 73 | 36 | 10.4 | 16.5 | 0.00 | 0.00 | 0.00 | 28 | 1009.1 |
| 20260508195044 | 73 | 359 | 5.2 | 13.9 | 0.00 | 0.00 | 0.00 | 28 | 1009.2 |
| 20260508194542 | 73 | 62 | 7.8 | 13.9 | 0.00 | 0.00 | 0.00 | 30 | 1009.2 |
| 20260508194041 | 73 | 334 | 5.2 | 14.8 | 0.00 | 0.00 | 0.00 | 28 | 1009.3 |
| 20260508193540 | 73 | 12 | 4.3 | 15.6 | 0.00 | 0.00 | 0.00 | 29 | 1009.3 |
| 20260508193047 | 73 | 59 | 4.3 | 15.6 | 0.00 | 0.00 | 0.00 | 30 | 1009.3 |
| 20260508192537 | 73 | 3 | 7.8 | 13.9 | 0.00 | 0.00 | 0.00 | 29 | 1009.4 |
| 20260508192037 | 73 | 45 | 3.5 | 12.2 | 0.00 | 0.00 | 0.00 | 30 | 1009.4 |
| 20260508191535 | 72 | 30 | 6.1 | 15.6 | 0.00 | 0.00 | 0.00 | 29 | 1009.4 |
| 20260508191032 | 73 | 46 | 10.4 | 15.6 | 0.00 | 0.00 | 0.00 | 29 | 1009.6 |
| 20260508190531 | 73 | 331 | 9.6 | 14.8 | 0.00 | 0.00 | 0.00 | 29 | 1009.7 |
| 20260508190031 | 73 | 8 | 7.8 | 14.8 | 0.00 | 0.00 | 0.00 | 29 | 1009.7 |
| 20260508185529 | 73 | 35 | 6.1 | 14.8 | 0.00 | 0.00 | 0.00 | 29 | 1009.8 |
| 20260508185026 | 73 | 34 | 7.8 | 15.6 | 0.00 | 0.00 | 0.00 | 30 | 1009.8 |
| 20260508184529 | 73 | 45 | 9.6 | 16.5 | 0.00 | 0.00 | 0.00 | 29 | 1010.0 |
| 20260508184023 | 72 | 12 | 8.7 | 17.4 | 0.00 | 0.00 | 0.00 | 29 | 1010.0 |
| 20260508183527 | 72 | 350 | 11.3 | 17.4 | 0.00 | 0.00 | 0.00 | 29 | 1010.0 |
| 20260508183020 | 72 | 37 | 9.6 | 18.2 | 0.00 | 0.00 | 0.00 | 28 | 1010.1 |
| 20260508182519 | 72 | 55 | 10.4 | 18.2 | 0.00 | 0.00 | 0.00 | 29 | 1010.1 |
| 20260508182017 | 72 | 32 | 11.3 | 16.5 | 0.00 | 0.00 | 0.00 | 29 | 1010.1 |
| 20260508181517 | 71 | 21 | 9.6 | 18.2 | 0.00 | 0.00 | 0.00 | 30 | 1010.2 |
| 20260508181015 | 71 | 23 | 10.4 | 18.2 | 0.00 | 0.00 | 0.00 | 29 | 1010.3 |
| 20260508180514 | 71 | 32 | 10.4 | 17.4 | 0.00 | 0.00 | 0.00 | 29 | 1010.2 |
| 20260508180018 | 71 | 12 | 9.6 | 17.4 | 0.00 | 0.00 | 0.00 | 29 | 1010.4 |
| 20260508175511 | 72 | 326 | 10.4 | 15.6 | 0.00 | 0.00 | 0.00 | 31 | 1010.4 |
| 20260508175010 | 71 | 13 | 9.6 | 16.5 | 0.00 | 0.00 | 0.00 | 30 | 1010.5 |
| 20260508174512 | 72 | 10 | 8.7 | 16.5 | 0.00 | 0.00 | 0.00 | 30 | 1010.5 |
| 20260508174013 | 71 | 39 | 7.8 | 17.4 | 0.00 | 0.00 | 0.00 | 32 | 1010.5 |
| 20260508173505 | 71 | 14 | 9.6 | 20.0 | 0.00 | 0.00 | 0.00 | 32 | 1010.5 |
| 20260508173008 | 70 | 24 | 7.8 | 17.4 | 0.00 | 0.00 | 0.00 | 32 | 1010.5 |
| 20260508172503 | 70 | 345 | 9.6 | 17.4 | 0.00 | 0.00 | 0.00 | 32 | 1010.6 |
| 20260508172002 | 70 | 332 | 7.8 | 13.9 | 0.00 | 0.00 | 0.00 | 33 | 1010.6 |
| 20260508171600 | 70 | 1 | 8.7 | 15.6 | 0.00 | 0.00 | 0.00 | 32 | 1010.6 |
| 20260508171058 | 70 | 345 | 7.0 | 16.5 | 0.00 | 0.00 | 0.00 | 33 | 1010.7 |
| 20260508170557 | 70 | 359 | 7.8 | 16.5 | 0.00 | 0.00 | 0.00 | 32 | 1010.7 |
| 20260508170055 | 70 | 44 | 7.8 | 13.9 | 0.00 | 0.00 | 0.00 | 34 | 1010.6 |
| 20260508165557 | 70 | 355 | 9.6 | 14.8 | 0.00 | 0.00 | 0.00 | 34 | 1010.7 |
| 20260508165052 | 70 | 350 | 6.1 | 14.8 | 0.00 | 0.00 | 0.00 | 35 | 1010.6 |
| 20260508164552 | 70 | 5 | 9.6 | 14.8 | 0.00 | 0.00 | 0.00 | 34 | 1010.6 |
| 20260508164051 | 69 | 42 | 7.0 | 14.8 | 0.00 | 0.00 | 0.00 | 36 | 1010.5 |
| 20260508163553 | 69 | 26 | 9.6 | 14.8 | 0.00 | 0.00 | 0.00 | 35 | 1010.6 |
| 20260508163049 | 69 | 1 | 7.8 | 13.0 | 0.00 | 0.00 | 0.00 | 35 | 1010.6 |
| 20260508162545 | 69 | 345 | 9.6 | 13.9 | 0.00 | 0.00 | 0.00 | 35 | 1010.6 |
| 20260508162044 | 69 | 33 | 7.8 | 13.9 | 0.00 | 0.00 | 0.00 | 37 | 1010.6 |
| 20260508161543 | 68 | 7 | 6.1 | 10.4 | 0.00 | 0.00 | 0.00 | 39 | 1010.7 |
| 20260508161043 | 67 | 27 | 5.2 | 9.6 | 0.00 | 0.00 | 0.00 | 41 | 1010.7 |
| 20260508160543 | 65 | 24 | 5.2 | 8.7 | 0.00 | 0.00 | 0.00 | 41 | 1010.8 |
| 20260508160058 | 65 | 28 | 2.6 | 6.1 | 0.00 | 0.00 | 0.00 | 43 | 1010.8 |
| 20260508155539 | 63 | 355 | 1.7 | 5.2 | 0.00 | 0.00 | 0.00 | 44 | 1010.9 |
| 20260508155036 | 62 | 355 | 1.7 | 3.5 | 0.00 | 0.00 | 0.00 | 46 | 1011.0 |
| 20260508154534 | 61 | 53 | 0.0 | 1.7 | 0.00 | 0.00 | 0.00 | 48 | 1011.0 |
| 20260508154032 | 60 | 105 | 0.0 | 2.6 | 0.00 | 0.00 | 0.00 | 49 | 1011.1 |
| 20260508153531 | 59 | 105 | 0.0 | 2.6 | 0.00 | 0.00 | 0.00 | 50 | 1011.1 |
| 20260508153030 | 59 | 105 | 0.0 | 0.0 | 0.00 | 0.00 | 0.00 | 50 | 1011.2 |
| 20260508152527 | 59 | 105 | 0.0 | 0.0 | 0.00 | 0.00 | 0.00 | 49 | 1011.3 |
| 20260508152026 | 59 | 105 | 0.0 | 1.7 | 0.00 | 0.00 | 0.00 | 49 | 1011.3 |
| 20260508151524 | 58 | 105 | 0.0 | 1.7 | 0.00 | 0.00 | 0.00 | 51 | 1011.4 |
| 20260508151023 | 57 | 105 | 0.0 | 1.7 | 0.00 | 0.00 | 0.00 | 51 | 1011.4 |
| 20260508150522 | 56 | 105 | 0.0 | 2.6 | 0.00 | 0.00 | 0.00 | 50 | 1011.5 |
| 20260508150022 | 55 | 105 | 0.0 | 2.6 | 0.00 | 0.00 | 0.00 | 50 | 1011.5 |
| 20260508145519 | 55 | 105 | 0.9 | 2.6 | 0.00 | 0.00 | 0.00 | 49 | 1011.5 |
| 20260508145020 | 54 | 105 | 0.0 | 2.6 | 0.00 | 0.00 | 0.00 | 45 | 1011.7 |
| 20260508144516 | 53 | 105 | 0.0 | 2.6 | 0.00 | 0.00 | 0.00 | 40 | 1011.6 |
| 20260508144015 | 52 | 112 | 0.9 | 2.6 | 0.00 | 0.00 | 0.00 | 23 | 1011.5 |
| 20260508143513 | 51 | 218 | 0.0 | 0.9 | 0.00 | 0.00 | 0.00 | 1 | 1011.6 |
| 20260508143010 | 50 | 218 | 0.0 | 0.9 | 0.00 | 0.00 | 0.00 | 1 | 1011.7 |
| 20260508142509 | 49 | 218 | 0.0 | 1.7 | 0.00 | 0.00 | 0.00 | 1 | 1011.6 |
| 20260508142008 | 47 | 218 | 0.0 | 1.7 | 0.00 | 0.00 | 0.00 | 1 | 1011.6 |
| 20260508141506 | 46 | 218 | 0.0 | 0.0 | 0.00 | 0.00 | 0.00 | 1 | 1011.6 |
| 20260508141004 | 45 | 218 | 0.0 | 0.0 | 0.00 | 0.00 | 0.00 | 1 | 1011.5 |
| 20260508140503 | 45 | 218 | 0.0 | 0.0 | 0.00 | 0.00 | 0.00 | 1 | 1011.6 |
| 20260508140002 | 44 | 218 | 0.0 | 0.9 | 0.00 | 0.00 | 0.00 | 1 | 1011.7 |
| 20260508135600 | 43 | 218 | 0.0 | 1.7 | 0.00 | 0.00 | 0.00 | 1 | 1011.6 |
| 20260508135058 | 43 | 218 | 0.9 | 2.6 | 0.00 | 0.00 | 0.00 | 1 | 1011.5 |
| 20260508134559 | 42 | 218 | 0.9 | 2.6 | 0.00 | 0.00 | 0.00 | 1 | 1011.5 |
| 20260508134056 | 41 | 218 | 0.0 | 0.0 | 0.00 | 0.00 | 0.00 | 1 | 1011.3 |
| 20260508133558 | 40 | 218 | 0.0 | 0.0 | 0.00 | 0.00 | 0.00 | 1 | 1011.4 |
| 20260508133058 | 40 | 218 | 0.0 | 0.0 | 0.00 | 0.00 | 0.00 | 1 | 1011.4 |
| 20260508132551 | 39 | 218 | 0.0 | 0.0 | 0.00 | 0.00 | 0.00 | 1 | 1011.4 |
| 20260508132050 | 37 | 218 | 0.0 | 0.0 | 0.00 | 0.00 | 0.00 | 1 | 1011.4 |
| 20260508131549 | 36 | 218 | 0.0 | 0.9 | 0.00 | 0.00 | 0.00 | 1 | 1011.4 |
| 20260508131047 | 36 | 218 | 0.0 | 1.7 | 0.00 | 0.00 | 0.00 | 1 | 1011.3 |
| 20260508130546 | 35 | 218 | 0.9 | 1.7 | 0.00 | 0.00 | 0.00 | 1 | 1011.2 |
| 20260508130053 | 35 | 218 | 0.0 | 1.7 | 0.00 | 0.00 | 0.00 | 1 | 1011.3 |
| 20260508125543 | 35 | 218 | 0.0 | 1.7 | 0.00 | 0.00 | 0.00 | 1 | 1011.1 |
| 20260508125042 | 35 | 218 | 0.0 | 1.7 | 0.00 | 0.00 | 0.00 | 1 | 1011.1 |
| 20260508124540 | 35 | 218 | 0.0 | 1.7 | 0.00 | 0.00 | 0.00 | 1 | 1011.1 |
| 20260508124039 | 35 | 218 | 0.0 | 0.0 | 0.00 | 0.00 | 0.00 | 1 | 1010.9 |
| 20260508123538 | 35 | 218 | 0.0 | 1.7 | 0.00 | 0.00 | 0.00 | 1 | 1010.9 |
| 20260508123036 | 34 | 218 | 0.0 | 1.7 | 0.00 | 0.00 | 0.00 | 1 | 1010.8 |
| 20260508122534 | 34 | 218 | 0.0 | 0.0 | 0.00 | 0.00 | 0.00 | 1 | 1010.7 |
| 20260508122033 | 35 | 206 | 0.0 | 1.7 | 0.00 | 0.00 | 0.00 | 1 | 1010.7 |
| 20260508121552 | 35 | 206 | 0.9 | 1.7 | 0.00 | 0.00 | 0.00 | 1 | 1010.7 |
| 20260508121029 | 35 | 206 | 0.0 | 0.9 | 0.00 | 0.00 | 0.00 | 1 | 1010.7 |
| 20260508120528 | 35 | 206 | 0.0 | 0.0 | 0.00 | 0.00 | 0.00 | 1 | 1010.6 |
| 20260508120031 | 35 | 206 | 0.0 | 0.0 | 0.00 | 0.00 | 0.00 | 1 | 1010.6 |
| 20260508115527 | 35 | 206 | 0.0 | 0.0 | 0.00 | 0.00 | 0.00 | 1 | 1010.6 |
| 20260508115024 | 35 | 206 | 0.0 | 0.0 | 0.00 | 0.00 | 0.00 | 1 | 1010.6 |
| 20260508114523 | 35 | 206 | 0.0 | 1.7 | 0.00 | 0.00 | 0.00 | 1 | 1010.5 |
| 20260508114022 | 36 | 206 | 0.0 | 1.7 | 0.00 | 0.00 | 0.00 | 1 | 1010.5 |
| 20260508113521 | 36 | 206 | 0.0 | 0.0 | 0.00 | 0.00 | 0.00 | 1 | 1010.6 |
| 20260508113019 | 36 | 205 | 0.0 | 1.7 | 0.00 | 0.00 | 0.00 | 1 | 1010.4 |
| 20260508112516 | 37 | 205 | 0.0 | 1.7 | 0.00 | 0.00 | 0.00 | 1 | 1010.5 |
| 20260508112015 | 38 | 205 | 0.0 | 1.7 | 0.00 | 0.00 | 0.00 | 1 | 1010.5 |
| 20260508111514 | 39 | 205 | 0.9 | 2.6 | 0.00 | 0.00 | 0.00 | 1 | 1010.4 |
| 20260508111013 | 39 | 205 | 0.9 | 3.5 | 0.00 | 0.00 | 0.00 | 1 | 1010.5 |
| 20260508110512 | 39 | 205 | 1.7 | 4.3 | 0.00 | 0.00 | 0.00 | 1 | 1010.5 |
| 20260508110010 | 38 | 205 | 1.7 | 4.3 | 0.00 | 0.00 | 0.00 | 1 | 1010.4 |
| 20260508105513 | 38 | 225 | 1.7 | 6.1 | 0.00 | 0.00 | 0.00 | 1 | 1010.5 |
| 20260508105008 | 37 | 253 | 1.7 | 6.1 | 0.00 | 0.00 | 0.00 | 1 | 1010.4 |
| 20260508104506 | 37 | 253 | 0.9 | 3.5 | 0.00 | 0.00 | 0.00 | 1 | 1010.4 |
| 20260508104004 | 37 | 253 | 1.7 | 3.5 | 0.00 | 0.00 | 0.00 | 1 | 1010.3 |
| 20260508103503 | 37 | 253 | 0.9 | 3.5 | 0.00 | 0.00 | 0.00 | 1 | 1010.4 |
| 20260508103005 | 37 | 253 | 1.7 | 3.5 | 0.00 | 0.00 | 0.00 | 1 | 1010.4 |
| 20260508102600 | 37 | 253 | 0.9 | 3.5 | 0.00 | 0.00 | 0.00 | 1 | 1010.4 |
| 20260508102059 | 37 | 253 | 1.7 | 3.5 | 0.00 | 0.00 | 0.00 | 1 | 1010.3 |
| 20260508101657 | 36 | 253 | 0.9 | 2.6 | 0.00 | 0.00 | 0.00 | 1 | 1010.2 |
| 20260508101056 | 36 | 253 | 0.0 | 1.7 | 0.00 | 0.00 | 0.00 | 1 | 1010.1 |
| 20260508100554 | 36 | 253 | 0.0 | 1.7 | 0.00 | 0.00 | 0.00 | 1 | 1010.0 |
| 20260508100052 | 36 | 253 | 0.9 | 1.7 | 0.00 | 0.00 | 0.00 | 1 | 1010.0 |
| 20260508095551 | 37 | 253 | 0.0 | 2.6 | 0.00 | 0.00 | 0.00 | 1 | 1010.0 |
| 20260508095053 | 38 | 253 | 1.7 | 2.6 | 0.00 | 0.00 | 0.00 | 1 | 1009.9 |
| 20260508094603 | 39 | 253 | 1.7 | 2.6 | 0.00 | 0.00 | 0.00 | 1 | 1009.9 |
| 20260508094047 | 40 | 253 | 0.0 | 1.7 | 0.00 | 0.00 | 0.00 | 1 | 1009.8 |
| 20260508093547 | 40 | 253 | 0.0 | 2.6 | 0.00 | 0.00 | 0.00 | 1 | 1009.9 |
| 20260508093045 | 40 | 253 | 0.9 | 2.6 | 0.00 | 0.00 | 0.00 | 1 | 1009.8 |
| 20260508092542 | 41 | 253 | 0.0 | 0.0 | 0.00 | 0.00 | 0.00 | 1 | 1009.8 |
| 20260508092041 | 41 | 253 | 0.0 | 0.0 | 0.00 | 0.00 | 0.00 | 1 | 1009.8 |
| 20260508091541 | 41 | 253 | 0.0 | 1.7 | 0.00 | 0.00 | 0.00 | 1 | 1009.8 |
| 20260508091039 | 40 | 253 | 0.0 | 1.7 | 0.00 | 0.00 | 0.00 | 1 | 1009.8 |
| 20260508090539 | 40 | 253 | 0.9 | 2.6 | 0.00 | 0.00 | 0.00 | 1 | 1009.8 |
| 20260508090037 | 41 | 253 | 1.7 | 2.6 | 0.00 | 0.00 | 0.00 | 1 | 1009.8 |
| 20260508085535 | 41 | 253 | 0.9 | 2.6 | 0.00 | 0.00 | 0.00 | 1 | 1009.8 |
| 20260508085033 | 41 | 253 | 0.0 | 0.0 | 0.00 | 0.00 | 0.00 | 1 | 1009.8 |
| 20260508084533 | 41 | 253 | 0.0 | 0.0 | 0.00 | 0.00 | 0.00 | 1 | 1009.9 |
| 20260508084035 | 41 | 253 | 0.0 | 0.0 | 0.00 | 0.00 | 0.00 | 1 | 1009.9 |
| 20260508083529 | 40 | 253 | 0.0 | 0.0 | 0.00 | 0.00 | 0.00 | 1 | 1009.9 |
| 20260508083046 | 40 | 253 | 0.0 | 0.0 | 0.00 | 0.00 | 0.00 | 1 | 1009.9 |
| 20260508082515 | 41 | 253 | 0.0 | 0.0 | 0.00 | 0.00 | 0.00 | 1 | 1010.0 |
| 20260508082020 | 41 | 253 | 0.0 | 0.0 | 0.00 | 0.00 | 0.00 | 1 | 1010.0 |
| 20260508081513 | 41 | 253 | 0.0 | 0.0 | 0.00 | 0.00 | 0.00 | 1 | 1010.0 |
| 20260508081010 | 41 | 253 | 0.0 | 0.0 | 0.00 | 0.00 | 0.00 | 1 | 1009.9 |
| 20260508080510 | 40 | 253 | 0.0 | 0.0 | 0.00 | 0.00 | 0.00 | 1 | 1009.9 |
| 20260508075506 | 40 | 253 | 0.0 | 0.0 | 0.00 | 0.00 | 0.00 | 3 | 1010.0 |
| 20260508075004 | 41 | 253 | 0.0 | 1.7 | 0.00 | 0.00 | 0.00 | 2 | 1009.9 |
| 20260508074502 | 41 | 253 | 0.0 | 1.7 | 0.00 | 0.00 | 0.00 | 1 | 1009.9 |
| 20260508074002 | 42 | 253 | 0.0 | 1.7 | 0.00 | 0.00 | 0.00 | 1 | 1009.9 |
| 20260508073601 | 42 | 253 | 0.0 | 1.7 | 0.00 | 0.00 | 0.00 | 1 | 1009.9 |
| 20260508073101 | 42 | 253 | 0.0 | 0.0 | 0.00 | 0.00 | 0.00 | 1 | 1009.9 |
| 20260508072558 | 42 | 253 | 0.0 | 1.7 | 0.00 | 0.00 | 0.00 | 1 | 1009.8 |
| 20260508072056 | 42 | 253 | 0.0 | 1.7 | 0.00 | 0.00 | 0.00 | 1 | 1009.7 |
| 20260508071557 | 42 | 253 | 0.9 | 1.7 | 0.00 | 0.00 | 0.00 | 1 | 1009.8 |
| 20260508071053 | 42 | 253 | 0.0 | 1.7 | 0.00 | 0.00 | 0.00 | 1 | 1009.8 |
| 20260508070552 | 42 | 253 | 0.0 | 0.0 | 0.00 | 0.00 | 0.00 | 1 | 1009.8 |
| 20260508070053 | 41 | 253 | 0.0 | 0.0 | 0.00 | 0.00 | 0.00 | 7 | 1009.8 |
| 20260508065548 | 41 | 253 | 0.0 | 0.9 | 0.00 | 0.00 | 0.00 | 16 | 1009.7 |
| 20260508065047 | 42 | 253 | 0.0 | 3.5 | 0.00 | 0.00 | 0.00 | 25 | 1009.7 |
| 20260508064604 | 44 | 253 | 2.6 | 3.5 | 0.00 | 0.00 | 0.00 | 22 | 1009.7 |
| 20260508064044 | 45 | 253 | 0.0 | 2.6 | 0.00 | 0.00 | 0.00 | 13 | 1009.7 |
| 20260508063543 | 45 | 253 | 1.7 | 2.6 | 0.00 | 0.00 | 0.00 | 12 | 1009.6 |
| 20260508063044 | 46 | 253 | 0.0 | 2.6 | 0.00 | 0.00 | 0.00 | 7 | 1009.5 |
| 20260508062540 | 45 | 253 | 0.0 | 3.5 | 0.00 | 0.00 | 0.00 | 6 | 1009.6 |
| 20260508062039 | 45 | 253 | 0.9 | 3.5 | 0.00 | 0.00 | 0.00 | 13 | 1009.6 |
| 20260508061542 | 45 | 253 | 0.9 | 3.5 | 0.00 | 0.00 | 0.00 | 14 | 1009.7 |
| 20260508061037 | 45 | 253 | 1.7 | 3.5 | 0.00 | 0.00 | 0.00 | 14 | 1009.6 |
| 20260508060537 | 45 | 253 | 2.6 | 3.5 | 0.00 | 0.00 | 0.00 | 14 | 1009.5 |
| 20260508060034 | 46 | 263 | 0.9 | 2.6 | 0.00 | 0.00 | 0.00 | 15 | 1009.5 |
| 20260508055531 | 47 | 267 | 1.7 | 2.6 | 0.00 | 0.00 | 0.00 | 10 | 1009.3 |
| 20260508055030 | 47 | 141 | 0.0 | 1.7 | 0.00 | 0.00 | 0.00 | 10 | 1009.2 |
| 20260508054529 | 47 | 141 | 0.0 | 1.7 | 0.00 | 0.00 | 0.00 | 1 | 1009.2 |
| 20260508054026 | 45 | 141 | 0.0 | 1.7 | 0.00 | 0.00 | 0.00 | 22 | 1009.2 |
| 20260508053526 | 45 | 141 | 0.0 | 4.3 | 0.00 | 0.00 | 0.00 | 37 | 1009.2 |
| 20260508053026 | 46 | 141 | 2.6 | 4.3 | 0.00 | 0.00 | 0.00 | 41 | 1009.2 |
| 20260508052525 | 48 | 359 | 0.0 | 2.6 | 0.00 | 0.00 | 0.00 | 34 | 1009.0 |
| 20260508052020 | 49 | 359 | 0.0 | 1.7 | 0.00 | 0.00 | 0.00 | 15 | 1008.9 |
| 20260508051519 | 49 | 359 | 0.0 | 0.9 | 0.00 | 0.00 | 0.00 | 6 | 1008.8 |
| 20260508051018 | 49 | 359 | 0.0 | 0.9 | 0.00 | 0.00 | 0.00 | 18 | 1008.8 |
| 20260508050516 | 48 | 359 | 0.0 | 0.0 | 0.00 | 0.00 | 0.00 | 30 | 1008.7 |
| 20260508050020 | 48 | 359 | 0.0 | 0.0 | 0.00 | 0.00 | 0.00 | 43 | 1008.8 |
| 20260508045513 | 49 | 359 | 0.0 | 0.0 | 0.00 | 0.00 | 0.00 | 44 | 1008.7 |
| 20260508045012 | 49 | 359 | 0.0 | 0.0 | 0.00 | 0.00 | 0.00 | 46 | 1008.6 |
| 20260508044511 | 50 | 359 | 0.0 | 2.6 | 0.00 | 0.00 | 0.00 | 48 | 1008.6 |
| 20260508044010 | 50 | 359 | 0.0 | 2.6 | 0.00 | 0.00 | 0.00 | 50 | 1008.6 |
| 20260508043508 | 51 | 359 | 0.9 | 4.3 | 0.00 | 0.00 | 0.00 | 49 | 1008.6 |
| 20260508043007 | 51 | 359 | 0.9 | 4.3 | 0.00 | 0.00 | 0.00 | 51 | 1008.7 |
| 20260508042505 | 52 | 359 | 1.7 | 3.5 | 0.00 | 0.00 | 0.00 | 52 | 1008.6 |
| 20260508042003 | 53 | 359 | 0.0 | 1.7 | 0.00 | 0.00 | 0.00 | 53 | 1008.7 |
| 20260508041509 | 53 | 359 | 0.0 | 1.7 | 0.00 | 0.00 | 0.00 | 53 | 1008.6 |
| 20260508041001 | 54 | 359 | 0.0 | 0.9 | 0.00 | 0.00 | 0.00 | 53 | 1008.5 |
| 20260508040559 | 54 | 359 | 0.0 | 0.9 | 0.00 | 0.00 | 0.00 | 52 | 1008.5 |
| 20260508040111 | 55 | 359 | 0.0 | 3.5 | 0.00 | 0.00 | 0.00 | 52 | 1008.4 |
| 20260508035556 | 56 | 359 | 0.0 | 3.5 | 0.00 | 0.00 | 0.00 | 52 | 1008.4 |
| 20260508035501 | 56 | 359 | 0.9 | 3.5 | 0.00 | 0.00 | 0.00 | 52 | 1008.4 |
| 20260508035057 | 56 | 359 | 0.0 | 1.7 | 0.00 | 0.00 | 0.00 | 51 | 1008.4 |
| 20260508034556 | 57 | 359 | 0.0 | 1.7 | 0.00 | 0.00 | 0.00 | 50 | 1008.4 |
| 20260508034051 | 58 | 355 | 0.0 | 1.7 | 0.00 | 0.00 | 0.00 | 49 | 1008.2 |
| 20260508033552 | 59 | 359 | 0.0 | 2.6 | 0.00 | 0.00 | 0.00 | 48 | 1008.2 |
| 20260508033048 | 59 | 359 | 0.9 | 3.5 | 0.00 | 0.00 | 0.00 | 46 | 1008.1 |
| 20260508032547 | 59 | 359 | 0.9 | 4.3 | 0.00 | 0.00 | 0.00 | 46 | 1008.0 |
| 20260508032047 | 59 | 46 | 0.0 | 0.0 | 0.00 | 0.00 | 0.00 | 48 | 1008.1 |
| 20260508031544 | 58 | 335 | 0.0 | 0.0 | 0.00 | 0.00 | 0.00 | 48 | 1008.1 |
| 20260508031044 | 57 | 11 | 0.0 | 0.0 | 0.00 | 0.00 | 0.00 | 49 | 1008.0 |
| 20260508030542 | 57 | 11 | 0.0 | 0.0 | 0.00 | 0.00 | 0.00 | 49 | 1008.0 |
| 20260508030050 | 57 | 11 | 0.0 | 0.0 | 0.00 | 0.00 | 0.00 | 50 | 1007.9 |
| 20260508025539 | 57 | 245 | 0.0 | 0.0 | 0.00 | 0.00 | 0.00 | 50 | 1007.8 |
| 20260508025038 | 57 | 245 | 0.0 | 0.0 | 0.00 | 0.00 | 0.00 | 50 | 1007.7 |
| 20260508024546 | 58 | 245 | 0.0 | 3.5 | 0.00 | 0.00 | 0.00 | 48 | 1007.6 |
| 20260508024037 | 59 | 245 | 1.7 | 5.2 | 0.00 | 0.00 | 0.00 | 47 | 1007.5 |
| 20260508023534 | 60 | 250 | 3.5 | 5.2 | 0.00 | 0.00 | 0.00 | 46 | 1007.5 |
| 20260508023036 | 61 | 242 | 2.6 | 5.2 | 0.00 | 0.00 | 0.00 | 45 | 1007.6 |
| 20260508022531 | 63 | 246 | 0.0 | 5.2 | 0.00 | 0.00 | 0.00 | 42 | 1007.5 |
| 20260508022030 | 64 | 248 | 1.7 | 5.2 | 0.00 | 0.00 | 0.00 | 40 | 1007.5 |
| 20260508021528 | 66 | 213 | 0.0 | 2.6 | 0.00 | 0.00 | 0.00 | 39 | 1007.4 |
| 20260508021029 | 67 | 247 | 0.0 | 2.6 | 0.00 | 0.00 | 0.00 | 39 | 1007.5 |
| 20260508020526 | 68 | 248 | 0.9 | 3.5 | 0.00 | 0.00 | 0.00 | 38 | 1007.5 |
| 20260508020024 | 69 | 219 | 0.9 | 3.5 | 0.00 | 0.00 | 0.00 | 36 | 1007.5 |
| 20260508015523 | 70 | 224 | 0.9 | 3.5 | 0.00 | 0.00 | 0.00 | 35 | 1007.4 |
| 20260508015021 | 71 | 224 | 1.7 | 3.5 | 0.00 | 0.00 | 0.00 | 34 | 1007.5 |
| 20260508014530 | 72 | 258 | 1.7 | 3.5 | 0.00 | 0.00 | 0.00 | 33 | 1007.5 |
| 20260508014018 | 72 | 243 | 1.7 | 4.3 | 0.00 | 0.00 | 0.00 | 33 | 1007.6 |
| 20260508013518 | 73 | 253 | 1.7 | 6.1 | 0.00 | 0.00 | 0.00 | 33 | 1007.7 |
| 20260508013015 | 73 | 226 | 3.5 | 7.0 | 0.00 | 0.00 | 0.00 | 32 | 1007.8 |
| 20260508012518 | 73 | 244 | 2.6 | 6.1 | 0.00 | 0.00 | 0.00 | 31 | 1007.7 |
| 20260508012012 | 73 | 207 | 2.6 | 6.1 | 0.00 | 0.00 | 0.00 | 31 | 1007.8 |
| 20260508011510 | 73 | 263 | 1.7 | 7.8 | 0.00 | 0.00 | 0.00 | 29 | 1007.9 |
| 20260508011009 | 73 | 240 | 3.5 | 8.7 | 0.00 | 0.00 | 0.00 | 30 | 1007.9 |
| 20260508010508 | 72 | 267 | 3.5 | 9.6 | 0.00 | 0.00 | 0.00 | 29 | 1008.0 |
| 20260508010006 | 72 | 242 | 0.0 | 3.5 | 0.00 | 0.00 | 0.00 | 31 | 1008.0 |
| 20260508005513 | 72 | 226 | 1.7 | 3.5 | 0.00 | 0.00 | 0.00 | 31 | 1008.0 |
| 20260508005004 | 72 | 174 | 0.9 | 4.3 | 0.00 | 0.00 | 0.00 | 30 | 1008.0 |
| 20260508004502 | 72 | 263 | 2.6 | 7.8 | 0.00 | 0.00 | 0.00 | 31 | 1008.2 |
| 20260508004003 | 73 | 316 | 4.3 | 7.8 | 0.00 | 0.00 | 0.00 | 29 | 1008.2 |
| 20260508003559 | 73 | 268 | 3.5 | 6.1 | 0.00 | 0.00 | 0.00 | 29 | 1008.2 |
| 20260508003112 | 73 | 274 | 1.7 | 7.8 | 0.00 | 0.00 | 0.00 | 30 | 1008.3 |
| 20260508002556 | 73 | 335 | 2.6 | 13.9 | 0.00 | 0.00 | 0.00 | 29 | 1008.4 |
| 20260508002055 | 73 | 286 | 7.0 | 13.9 | 0.00 | 0.00 | 0.00 | 29 | 1008.4 |
| 20260508001553 | 73 | 291 | 6.1 | 11.3 | 0.00 | 0.00 | 0.00 | 29 | 1008.5 |
| 20260508001053 | 73 | 286 | 2.6 | 13.0 | 0.00 | 0.00 | 0.00 | 30 | 1008.5 |
| 20260508000551 | 74 | 315 | 7.8 | 13.0 | 0.00 | 0.00 | 0.00 | 28 | 1008.6 |